Regional Weather Roundup
Issued by NWS

Home | Current Version | Previous Version | Graphics & Text | Print | Product List | Glossary On
Versions: 1 2 3 4 5 6 7 8 9 10 11 12 13 14 15 16 17 18 19 20 21 22 23 24 25 26 27 28 29 30 31 32 33 34 35 36 37 38 39 40 41 42 43 44 45 46 47 48 49 50
000
ASUS45 KABQ 280601
RWRNM
NEW MEXICO REGIONAL WEATHER ROUNDUP
NATIONAL WEATHER SERVICE ALBUQUERQUE NM
1200 AM MDT THU JUL 28 2016

NOTE: "FAIR" MEANS FEW OR NO CLOUDS BELOW 12,000 FEET AGL WITH NO
       SIGNIFICANT WEATHER OR OBSTRUCTIONS TO VISION.

      THIS PRODUCT IS RELEASED AS TWO VERSIONS.  ONE VERSION NEAR
      THE TOP OF THE HOUR CONTAINING PRELIMINARY DATA FROM ALBUQUERQUE
      AND OTHER STATIONS.  A FINAL VERSION WITH ADDITIONAL DATA IS
      ISSUED ABOUT 10 MINUTES AFTER THE HOUR.

NMZ501-503-504-510>518-280700-
NORTHWEST PLATEAU/NORTHCENTRAL MOUNTAINS

CITY           SKY/WX    TMP DP  RH WIND       PRES   REMARKS
FARMINGTON     FAIR      77  31  18 NE6       30.10R
6HR MIN TEMP:  77; 6HR MAX TEMP:  99;

LOS ALAMOS     FAIR      71  44  37 SW10      30.36S
SANTA FE       FAIR      74  49  41 SE14      30.28R
6HR MIN TEMP:  73; 6HR MAX TEMP:  87;

TAOS           FAIR      70  37  30 E13       30.34S
ANGEL FIRE     FAIR      55  47  74 CALM      30.48R

$$
NMZ402-403-502-505>509-280700-
WESTCENTRAL MOUNTAINS/SOUTHWEST MOUNTAINS

CITY           SKY/WX    TMP DP  RH WIND       PRES   REMARKS
GALLUP         FAIR      67  31  26 NE8       30.23S
6HR MIN TEMP:  64; 6HR MAX TEMP:  93;

GRANTS         FAIR      67  45  44 S7        30.28S
SILVER CITY    MOCLDY    68  53  59 NE33G54   30.26R

$$
NMZ407-409-411-412-280700-
SOUTHERN DESERTS

CITY           SKY/WX    TMP DP  RH WIND       PRES   REMARKS
LORDSBURG      FAIR      70  61  73 CALM      30.11R
DEMING         FAIR      73  65  75 N6        30.12R
6HR MIN TEMP:  72; 6HR MAX TEMP:  81;

LAS CRUCES     FAIR      77  56  47 NW3       30.14R
HOLLOMAN AFB   FAIR      77  59  53 N5        30.08S
ALAMOGORDO     FAIR      77  54  44 E6        30.11S
T OR C         NOT AVBL

$$
NMZ519>523-280700-
CENTRAL VALLEYS/CENTRAL HIGHLANDS

CITY           SKY/WX    TMP DP  RH WIND       PRES   REMARKS
ALBUQUERQUE    FAIR      79  49  34 S8        30.20R
6HR MIN TEMP:  79; 6HR MAX TEMP:  91;

DOUBLE EAGLE   FAIR      73  50  44 S8        30.24R
MORIARTY ARPT  FAIR      65  55  71 CALM      30.30R
6HR MIN TEMP:  65; 6HR MAX TEMP:  79;

CLINES CORNERS FAIR      63  53  70 SE8       30.36R
6HR MIN TEMP:  63; 6HR MAX TEMP:  76;

BELEN          FAIR      75  51  43 S8        30.19R
6HR MIN TEMP:  75; 6HR MAX TEMP:  92;

SOCORRO        FAIR      73  57  58 NE6       30.16S
6HR MIN TEMP:  71; 6HR MAX TEMP:  95; 6HR PCP:  0.02;


$$
NMZ524>526-539-540-280700-
SOUTHCENTRAL MOUNTAINS

CITY           SKY/WX    TMP DP  RH WIND       PRES   REMARKS
RUIDOSO          N/A     66  52  59 CALM      30.35F

$$
NMZ527>531-280700-
NORTHEAST HIGHLANDS/NORTHEAST PLAINS

CITY           SKY/WX    TMP DP  RH WIND       PRES   REMARKS
LAS VEGAS      FAIR      64  47  53 CALM      30.38R
6HR MIN TEMP:  62; 6HR MAX TEMP:  81;

RATON          FAIR     N/A N/A N/A SW13      30.32S
CLAYTON        FAIR      65  60  84 SW9       30.21F
6HR MIN TEMP:  64; 6HR MAX TEMP:  90;


$$
NMZ532>537-280700-
EASTCENTRAL PLAINS

CITY           SKY/WX    TMP DP  RH WIND       PRES   REMARKS
TUCUMCARI      FAIR      72  56  57 SE16      30.16F
6HR MIN TEMP:  72; 6HR MAX TEMP:  88;

CANNON AFB     FAIR      69  57  65 E15       30.19S
6HR MIN TEMP:  69; 6HR MAX TEMP:  84;

CLOVIS AIRPORT FAIR      68  54  60 E13       30.19F

$$
NMZ028-029-538-280700-
SOUTHEAST PLAINS

CITY           SKY/WX    TMP DP  RH WIND       PRES   REMARKS
ROSWELL        FAIR      77  59  53 SE3       30.09R
6HR MIN TEMP:  77; 6HR MAX TEMP:  97; 6HR PCP: TRACE;

ARTESIA        FAIR      82  57  42 SE7       30.08S
CARLSBAD       FAIR      81  59  47 E7        30.05R
6HR MIN TEMP:  80; 6HR MAX TEMP:  94;

HOBBS          FAIR      77  59  53 NE9       30.11S


$$




USA.gov is the U.S. government's official web portal to all federal, state and local government web resources and services.